Weather WX

World > North America > United States > Ohio

Norwalk, Ohio Regional Weather

Lat: 41.24N, Lon: 82.61W
Wx Zone: OHZ019
Feedback

Norwalk, OH Regional Weather

Expires:201906171700;;635070
ASUS41 KCLE 171612
RWRCLE
OHIO REGIONAL WEATHER ROUNDUP
NATIONAL WEATHER SERVICE WILMINGTON, OH
1200 PM EDT MON JUN 17 2019

NOTE: "FAIR" INDICATES FEW OR NO CLOUDS BELOW 12,000 FEET WITH NO
SIGNIFICANT WEATHER AND/OR OBSTRUCTIONS TO VISIBILITY.


OHZ009>014-019>023-028>033-038-089-171700-
   NORTHEAST OHIO
  
CITY           SKY/WX    TMP DP  RH WIND       PRES   REMARKS
CLE-HOPKINS    CLOUDY    67  63  87 NW3       30.02R                  
CLE-LAKEFRONT  CLOUDY    64  60  87 W5        29.99S                  
CUY CO. ARPT   CLOUDY    66  63  88 W5        30.00R FOG              
LORAIN-ELYRIA  CLOUDY    65  59  81 MISG      30.01R HAZE             
ASHTABULA      CLOUDY    65  64  97 CALM      30.01R                  
AKRON-CANTON   CLOUDY    72  66  81 SW8       30.00R                  
WOOSTER        CLOUDY    71  69  93 NW6       30.01R                  
MANSFIELD      CLOUDY    68  68 100 SW7       30.02R                  
YOUNGSTOWN     LGT RAIN  69  64  84 W5        30.00R                  
$$
 

SKY/WX - Weather  TMP - Temperature  DP - Dew Point  RH - Relative Humidity
WIND - Wind Direction/Speed PRES - Barometric Pressure VSB - Visibility
WCI - Wind Chill Index E13G22 Wind - East Wind 13 mph/Gusts of 22 mph